Location: Indian Springs
(36.5700°N, 115.6700°W)
Time: 11:50:52
(UTC-08:00)

Amateur Radio Satellites - All Passes

Search period start: 02 December 2016 11:20
Search period end: 03 December 2016 11:20
Location: Indian Springs, 36.5700°N, 115.6700°W

Satellite Date Start Highest point End Downlink Frequencies (MHz)
Time Altitude Azimuth
DX 1 02 Dec 11:33:41 11:37:30 28° 97° (E) 11:41:17 434.975-435.025
AO-85 02 Dec 11:39:06 11:43:04 73° 61° (ENE) 11:46:54 145.980
Cosmos 2499 02 Dec 11:39:26 11:48:05 66° 80° (E) 11:56:04 435.465 / 435.565
ESTCUBE 1 02 Dec 11:40:42 11:45:01 46° 287° (WNW) 11:49:19 437.505/2401.250
NANOSAT C BR1 02 Dec 11:47:48 11:50:24 16° 267° (W) 11:53:01 145.865
UKube-1 02 Dec 11:49:06 11:52:58 31° 98° (E) 11:56:49 .
BUGSAT 1 02 Dec 11:49:14 11:53:13 42° 261° (W) 11:57:15 437.445
DANDE 02 Dec 11:50:00 11:51:28 11° 284° (WNW) 11:52:50 436.750
QB50P2 02 Dec 11:50:11 11:52:11 13° 268° (W) 11:54:11 145.880/145.840
POLYITAN 1 02 Dec 11:50:37 11:52:49 14° 268° (W) 11:55:01 437.675
50 SAT 02 Dec 11:51:09 11:54:42 87° 101° (E) 11:58:15 437.505
RS-15 02 Dec 11:51:47 11:59:01 17° 349° (NNW) 12:06:19 29.354- 29.394
Gurwin Techsat 1B 02 Dec 11:52:30 11:56:28 22° 66° (ENE) 12:00:25 435.225
JUGNU 02 Dec 12:02:54 12:04:15 11° 168° (SSE) 12:05:36 437.505
AISAT 02 Dec 12:04:56 12:09:21 58° 285° (WNW) 12:13:43 437.250
AO-7 02 Dec 12:08:40 12:09:48 10° 47° (NE) 12:10:55 29.400- 29.500
SPROUT 02 Dec 12:10:19 12:14:37 81° 284° (WNW) 12:18:53 437.525
TISAT 1 02 Dec 12:13:00 12:15:22 15° 93° (E) 12:17:43 437.305
JAS-2 02 Dec 12:18:54 12:20:38 11° 269° (W) 12:22:19 435.910
PCSat 02 Dec 12:24:13 12:29:26 49° 301° (WNW) 12:34:42 145.827
Oscar 19 02 Dec 12:28:22 12:33:29 85° 258° (WSW) 12:38:38 437.125/150
VELOX 1 02 Dec 12:42:49 12:46:25 24° 291° (WNW) 12:50:00 145.980
CUBEBUG 1 02 Dec 12:43:34 12:46:18 16° 293° (WNW) 12:49:01 437.445
ITAMSAT 1 02 Dec 12:49:48 12:53:06 17° 64° (ENE) 12:56:24 435.822/435.867
GONETS M04 02 Dec 13:03:23 13:11:22 43° 272° (W) 13:19:24
DX 1 02 Dec 13:10:05 13:13:31 22° 292° (WNW) 13:16:55 434.975-435.025
SWISSCUBE 02 Dec 13:19:20 13:22:33 18° 94° (E) 13:25:44 437.505
BEESAT 02 Dec 13:23:51 13:27:03 18° 94° (E) 13:30:14 436.000
UKube-1 02 Dec 13:25:36 13:28:47 20° 292° (WNW) 13:31:57 .
Gurwin Techsat 1B 02 Dec 13:31:03 13:36:04 43° 261° (W) 13:41:08 435.225
Cosmos 2499 02 Dec 13:34:02 13:40:17 23° 279° (W) 13:46:16 435.465 / 435.565
BEESAT 3 02 Dec 13:37:36 13:40:11 16° 49° (NE) 13:42:45 437.485
TISAT 1 02 Dec 13:47:12 13:51:09 39° 288° (WNW) 13:55:04 437.305
ITUPSAT 1 02 Dec 13:47:52 13:52:07 32° 97° (E) 13:56:20 437.325
JUGNU 02 Dec 13:49:13 13:52:26 15° 178° (S) 13:55:39 437.505
AO-7 02 Dec 13:52:43 14:00:42 55° 66° (ENE) 14:08:43 29.400- 29.500
BEESAT 2 02 Dec 13:58:23 14:00:20 13° 47° (NE) 14:02:18 435.950
AUBIESAT-1 02 Dec 14:00:01 14:04:25 43° 103° (ESE) 14:08:39 437.475
M-CUBED/EXP-1 PRIME 02 Dec 14:08:31 14:13:12 69° 106° (ESE) 14:17:44 437.505
RS-15 02 Dec 14:09:27 14:18:28 22° 26° (NNE) 14:27:20 29.354- 29.394
ITAMSAT 1 02 Dec 14:26:59 14:32:05 55° 259° (W) 14:37:13 435.822/435.867
SWISSCUBE 02 Dec 14:56:01 15:00:28 40° 288° (WNW) 15:04:53 437.505
BEESAT 02 Dec 15:00:30 15:04:58 41° 288° (WNW) 15:09:23 436.000
O/OREOS (USA 219) 02 Dec 15:04:17 15:06:31 14° 99° (E) 15:08:45 437.305
MOZHAYETS 4 02 Dec 15:04:45 15:09:12 51° 100° (E) 15:13:37
BEESAT 3 02 Dec 15:14:14 15:18:00 41° 245° (WSW) 15:21:43 437.485
SRMSAT 02 Dec 15:20:50 15:23:31 13° 172° (S) 15:26:14 437.500
ITUPSAT 1 02 Dec 15:25:59 15:29:45 24° 292° (WNW) 15:33:30 437.325
BEESAT 2 02 Dec 15:34:31 15:38:29 58° 243° (WSW) 15:42:25 435.950
AUBIESAT-1 02 Dec 15:35:17 15:38:25 18° 299° (WNW) 15:41:29 437.475
JUGNU 02 Dec 15:38:02 15:40:38 13° 188° (S) 15:43:14 437.505
GOMX 1 02 Dec 15:42:35 15:45:08 15° 64° (ENE) 15:47:46 467.674
BRITE-PL 02 Dec 15:44:48 15:48:40 37° 72° (ENE) 15:52:43 437.365/2234.400
M-CUBED/EXP-1 PRIME 02 Dec 15:44:58 15:47:02 13° 301° (WNW) 15:49:04 437.505
AO-7 02 Dec 15:46:42 15:53:42 30° 263° (W) 16:00:46 29.400- 29.500
Cubesat XI-IV 02 Dec 15:58:50 16:02:01 16° 63° (ENE) 16:05:11 437.490
LilacSat-2 02 Dec 16:02:04 16:03:06 11° 66° (ENE) 16:04:06 437.200
KKS-1 02 Dec 16:04:00 16:08:31 85° 283° (WNW) 16:12:59 437.445
NOAA 15 02 Dec 16:09:11 16:13:08 22° 66° (ENE) 16:17:07 137.62
DOVE 4 02 Dec 16:13:25 16:15:49 14° 63° (ENE) 16:18:16 437.250
HORYU 2 02 Dec 16:14:01 16:18:30 76° 75° (ENE) 16:23:00 437.375
STARS 02 Dec 16:21:07 16:25:32 67° 102° (ESE) 16:29:54 437.465
RS-15 02 Dec 16:21:57 16:34:14 63° 54° (NE) 16:46:03 29.354- 29.394
CUBESAT XI-V 02 Dec 16:33:31 16:38:09 65° 101° (E) 16:42:47 437.345
HO-68 02 Dec 16:40:22 16:41:21 10° 52° (NE) 16:42:21 435.675
O/OREOS (USA 219) 02 Dec 16:41:00 16:45:26 49° 293° (WNW) 16:49:52 437.305
MOZHAYETS 4 02 Dec 16:43:32 16:45:53 14° 295° (WNW) 16:48:15
NOAA 18 02 Dec 16:48:02 16:52:50 32° 68° (ENE) 16:57:41 137.9125
ISS 02 Dec 17:05:02 17:08:19 74° 320° (NW) 17:11:37 145.825
Cosmos 2491 02 Dec 17:06:12 17:13:43 31° 72° (ENE) 17:21:10 435.465 / 435.565
SRMSAT 02 Dec 17:08:41 17:11:52 15° 183° (S) 17:15:04 437.500
CUTE-I 02 Dec 17:11:27 17:16:49 79° 75° (ENE) 17:22:13 437.470
GOMX 1 02 Dec 17:18:29 17:22:42 47° 262° (W) 17:27:14 467.674
BRITE-PL 02 Dec 17:24:59 17:27:23 15° 269° (W) 17:29:50 437.365/2234.400
AIST 2 02 Dec 17:26:54 17:31:02 51° 58° (ENE) 17:35:08 435.215
LilacSat-2 02 Dec 17:33:11 17:36:55 47° 261° (W) 17:40:40 437.200
YUBILEINY 02 Dec 17:34:24 17:40:07 20° 80° (E) 17:45:50 435.215
Cubesat XI-IV 02 Dec 17:36:12 17:41:30 62° 258° (WSW) 17:46:52 437.490
CUTE 1.7 + AOD 2 02 Dec 17:38:40 17:40:49 14° 67° (ENE) 17:42:58 437.475
NOAA 15 02 Dec 17:47:43 17:52:37 41° 261° (W) 17:57:33 137.62
DOVE 4 02 Dec 17:48:20 17:52:52 58° 260° (W) 17:57:43 437.250
CANX-2 02 Dec 17:54:24 17:57:49 24° 70° (ENE) 18:01:14 2200.000
CINEMA 3 02 Dec 17:57:49 18:02:24 44° 72° (ENE) 18:07:07 145.822/145.860
STARS 02 Dec 18:00:24 18:01:16 10° 297° (WNW) 18:02:07 437.465
CUBESAT XI-V 02 Dec 18:13:15 18:14:56 12° 296° (WNW) 18:16:38 437.345
HO-68 02 Dec 18:20:37 18:27:39 63° 70° (ENE) 18:34:43 435.675
AAUSAT CUBESAT 2 02 Dec 18:21:05 18:23:13 14° 67° (ENE) 18:25:20 437.432
SEEDS 02 Dec 18:27:37 18:31:21 33° 73° (ENE) 18:35:07 437.485
NOAA 18 02 Dec 18:28:33 18:33:24 31° 263° (W) 18:38:17 137.9125
RS-15 02 Dec 18:35:21 18:46:01 37° 255° (WSW) 18:56:22 29.354- 29.394
STRAND 1 02 Dec 18:36:56 18:41:45 41° 99° (E) 18:46:31 437.568
AIST 1 02 Dec 18:41:21 18:43:12 13° 85° (E) 18:45:04
CUBEBUG 2 02 Dec 18:42:18 18:46:31 32° 71° (ENE) 18:50:45 437.445
ISS 02 Dec 18:43:46 18:45:19 13° 337° (NNW) 18:46:52 145.825
COMPASS 1 02 Dec 18:45:27 18:49:13 35° 72° (ENE) 18:52:59 437.405
ZACube-1 02 Dec 18:48:39 18:51:08 15° 66° (ENE) 18:53:35 437.345
CUTE-I 02 Dec 18:56:08 18:57:24 11° 270° (W) 18:58:39 437.470
FUNcube-1 02 Dec 18:58:08 19:01:02 17° 67° (ENE) 19:03:56 145.935
SRMSAT 02 Dec 18:59:22 19:00:13 10° 193° (SSW) 19:01:03 437.500
Cosmos 2491 02 Dec 19:02:29 19:10:47 51° 271° (W) 19:19:06 435.465 / 435.565
AIST 2 02 Dec 19:07:09 19:09:02 13° 252° (WSW) 19:10:54 435.215
Cosmos 2504 02 Dec 19:08:51 19:16:19 41° 87° (E) 19:24:14 435.465 / 435.565
CUTE 1.7 + AOD 2 02 Dec 19:12:13 19:16:15 44° 261° (W) 19:20:17 437.475
YUBILEINY 02 Dec 19:27:11 19:35:51 75° 278° (W) 19:44:38 435.215
CANX-2 02 Dec 19:30:10 19:33:34 23° 265° (W) 19:36:59 2200.000
UWE-3 02 Dec 19:32:27 19:37:06 74° 76° (ENE) 19:41:45 435.000/436.395/437.385
Oscar 11 02 Dec 19:32:36 19:36:33 37° 73° (ENE) 19:40:32 145.826/435.025
PCSat 02 Dec 19:33:26 19:35:24 12° 44° (NE) 19:37:23 145.827
CINEMA 3 02 Dec 19:36:26 19:39:42 18° 268° (W) 19:43:03 145.822/145.860
DELFI C3 02 Dec 19:52:16 19:55:06 19° 69° (ENE) 19:57:57 145.870
AAUSAT CUBESAT 2 02 Dec 19:54:25 19:58:18 41° 262° (W) 20:02:11 437.432
SEEDS 02 Dec 20:04:25 20:07:06 17° 266° (W) 20:09:49 437.485
SO-50 02 Dec 20:06:58 20:11:38 55° 116° (ESE) 20:16:16 436.795
HO-68 02 Dec 20:10:34 20:15:47 22° 266° (W) 20:21:02 435.675
AIST 1 02 Dec 20:16:15 20:20:19 43° 280° (W) 20:24:27
STRAND 1 02 Dec 20:16:51 20:20:36 21° 294° (WNW) 20:24:21 437.568
CUBEBUG 2 02 Dec 20:19:22 20:23:06 23° 266° (W) 20:26:53 437.445
COMPASS 1 02 Dec 20:22:23 20:24:52 15° 267° (W) 20:27:19 437.405
ZACube-1 02 Dec 20:22:31 20:26:57 50° 261° (W) 20:31:23 437.345
FUNcube-1 02 Dec 20:32:36 20:36:55 42° 262° (W) 20:41:13 145.935
CUSAT 1 02 Dec 20:33:50 20:37:20 89° 265° (W) 20:41:56 437.405
DANDE 02 Dec 20:44:06 20:46:00 16° 79° (ENE) 20:48:05 436.750
HUMSAT D 02 Dec 20:48:10 20:52:16 49° 74° (ENE) 20:56:20 437.325/437.525
Cosmos 2504 02 Dec 21:02:09 21:09:38 39° 286° (WNW) 21:17:38 435.465 / 435.565
TIGRISAT 02 Dec 21:03:32 21:06:35 18° 94° (E) 21:09:35 435.000
ANTELSAT 02 Dec 21:03:51 21:07:04 20° 94° (E) 21:10:13 437.575/2403.000
ESTCUBE 1 02 Dec 21:04:54 21:05:33 10° 63° (ENE) 21:06:11 437.505/2401.250
PRISM 02 Dec 21:07:27 21:11:35 68° 284° (WNW) 21:15:42 437.425
Oscar 11 02 Dec 21:10:04 21:12:47 16° 267° (W) 21:15:31 145.826/435.025
PCSat 02 Dec 21:14:15 21:19:42 78° 63° (ENE) 21:25:06 145.827
DELFI C3 02 Dec 21:26:28 21:29:44 25° 264° (W) 21:33:02 145.870
YUBILEINY 02 Dec 21:30:42 21:34:14 13° 298° (WNW) 21:37:45 435.215
SO-50 02 Dec 21:49:09 21:52:25 18° 313° (NW) 21:55:40 436.795
CUBEBUG 1 02 Dec 22:00:00 22:03:34 25° 70° (ENE) 22:07:10 437.445
VELOX 1 02 Dec 22:01:49 22:04:51 19° 67° (ENE) 22:07:54 145.980
UNISAT 6 02 Dec 22:07:49 22:12:14 71° 284° (WNW) 22:16:32 437.425
QB50P1 02 Dec 22:16:10 22:17:58 12° 92° (E) 22:19:43 145.935-145.965
DUCHIFAT 1 02 Dec 22:23:11 22:25:02 13° 92° (E) 22:26:52 145.980
50 SAT 02 Dec 22:24:35 22:27:20 22° 71° (ENE) 22:30:05 437.505
HUMSAT D 02 Dec 22:26:35 22:28:06 12° 268° (W) 22:29:36 437.325/437.525
DX 1 02 Dec 22:27:26 22:30:29 19° 67° (ENE) 22:33:31 434.975-435.025
DANDE 02 Dec 22:27:57 22:28:31 10° 266° (W) 22:29:06 436.750
POPSAT HIP 1 02 Dec 22:36:02 22:39:18 21° 95° (E) 22:42:32 437.405
ESTCUBE 1 02 Dec 22:37:17 22:41:43 69° 258° (WSW) 22:46:11 437.505/2401.250
TIGRISAT 02 Dec 22:39:22 22:43:21 33° 289° (WNW) 22:47:13 435.000
ANTELSAT 02 Dec 22:39:55 22:43:48 31° 289° (WNW) 22:47:36 437.575/2403.000
UKube-1 02 Dec 22:41:45 22:44:52 20° 68° (ENE) 22:48:01 .
AISAT 02 Dec 22:59:19 23:03:43 89° 77° (ENE) 23:08:11 437.250
PCSat 02 Dec 23:00:34 23:02:20 12° 258° (WSW) 23:04:05 145.827
SPROUT 02 Dec 23:00:55 23:05:05 53° 74° (ENE) 23:09:18 437.525
JAS-2 02 Dec 23:25:06 23:30:17 78° 285° (WNW) 23:35:40 435.910
NANOSAT C BR1 02 Dec 23:32:34 23:36:49 82° 286° (WNW) 23:41:01 145.865
BUGSAT 1 02 Dec 23:33:30 23:37:17 31° 97° (E) 23:40:58 437.445
QB50P2 02 Dec 23:34:51 23:39:04 66° 285° (WNW) 23:43:15 145.880/145.840
ISS 02 Dec 23:35:04 23:38:15 43° 37° (NE) 23:41:25 145.825
POLYITAN 1 02 Dec 23:35:29 23:39:43 69° 284° (WNW) 23:43:54 437.675
CUBEBUG 1 02 Dec 23:36:14 23:39:45 24° 264° (W) 23:43:19 437.445
VELOX 1 02 Dec 23:36:59 23:41:01 35° 262° (W) 23:45:05 145.980
QB50P1 02 Dec 23:49:52 23:53:57 46° 287° (WNW) 23:57:59 145.935-145.965
DUCHIFAT 1 02 Dec 23:56:53 00:00:55 45° 286° (WNW) 00:04:54 145.980
50 SAT 02 Dec 23:58:11 00:00:34 17° 265° (W) 00:02:57 437.505
DX 1 03 Dec 00:02:28 00:06:23 33° 262° (W) 00:10:21 434.975-435.025
GONETS M04 03 Dec 00:04:24 00:12:34 47° 89° (E) 00:20:44
PHONESAT 2.4 03 Dec 00:08:15 00:09:30 13° 146° (SE) 00:10:45 2401.200-2431.200
Cosmos 2499 03 Dec 00:11:23 00:19:30 57° 90° (E) 00:28:04 435.465 / 435.565
POPSAT HIP 1 03 Dec 00:11:26 00:15:02 27° 290° (WNW) 00:18:36 437.405
UKube-1 03 Dec 00:16:52 00:20:41 31° 262° (W) 00:24:32 .
SWISSCUBE 03 Dec 00:23:53 00:26:54 17° 65° (ENE) 00:29:55 437.505
BEESAT 03 Dec 00:28:20 00:31:20 17° 65° (ENE) 00:34:20 436.000
TISAT 1 03 Dec 00:35:34 00:39:48 77° 257° (WSW) 00:44:03 437.305
SPROUT 03 Dec 00:40:04 00:41:18 11° 269° (W) 00:42:32 437.525
Oscar 19 03 Dec 00:42:30 00:47:24 41° 99° (E) 00:52:16 437.125/150
AUBIESAT-1 03 Dec 00:43:18 00:46:54 33° 66° (ENE) 00:50:45 437.475
M-CUBED/EXP-1 PRIME 03 Dec 00:52:10 00:55:59 53° 69° (ENE) 01:00:08 437.505
ITUPSAT 1 03 Dec 00:52:18 00:56:23 29° 69° (ENE) 01:00:29 437.325
BUGSAT 1 03 Dec 01:09:27 01:12:22 19° 292° (WNW) 01:15:16 437.445
ISS 03 Dec 01:12:24 01:14:29 16° 231° (SW) 01:16:34 145.825
O/OREOS (USA 219) 03 Dec 01:15:07 01:18:14 18° 59° (ENE) 01:21:21 437.305
PHONESAT 2.4 03 Dec 01:41:48 01:44:28 85° 161° (SSE) 01:47:08 2401.200-2431.200
Gurwin Techsat 1B 03 Dec 01:49:21 01:54:42 89° 297° (WNW) 02:00:01 435.225
AO-85 03 Dec 01:50:09 01:54:58 47° 116° (ESE) 01:59:28 145.980
AO-7 03 Dec 01:58:36 02:04:11 19° 93° (E) 02:09:44 29.400- 29.500
SWISSCUBE 03 Dec 01:59:42 02:04:17 46° 261° (W) 02:08:53 437.505
GONETS M04 03 Dec 02:01:47 02:09:29 34° 287° (WNW) 02:17:14
BEESAT 03 Dec 02:04:07 02:08:42 47° 260° (W) 02:13:19 436.000
MOZHAYETS 4 03 Dec 02:04:07 02:08:19 36° 72° (ENE) 02:12:31
Cosmos 2499 03 Dec 02:05:58 02:13:03 29° 290° (WNW) 02:20:28 435.465 / 435.565
AUBIESAT-1 03 Dec 02:18:42 02:21:25 18° 263° (W) 02:24:14 437.475
Oscar 19 03 Dec 02:22:31 02:26:25 22° 294° (WNW) 02:30:19 437.125/150
M-CUBED/EXP-1 PRIME 03 Dec 02:30:04 02:30:51 10° 266° (W) 02:31:40 437.505
ITUPSAT 1 03 Dec 02:30:09 02:34:08 26° 264° (W) 02:38:08 437.325
ITAMSAT 1 03 Dec 02:42:11 02:47:21 65° 102° (ESE) 02:52:27 435.822/435.867
O/OREOS (USA 219) 03 Dec 02:53:38 02:57:46 37° 255° (WSW) 03:01:52 437.305
KKS-1 03 Dec 02:59:14 03:03:39 64° 75° (ENE) 03:08:05 437.445
STARS 03 Dec 03:15:06 03:19:16 42° 72° (ENE) 03:23:27 437.465
PHONESAT 2.4 03 Dec 03:17:26 03:19:54 33° 355° (N) 03:22:22 2401.200-2431.200
AO-85 03 Dec 03:31:56 03:35:33 20° 310° (NW) 03:39:01 145.980
Gurwin Techsat 1B 03 Dec 03:32:58 03:33:49 10° 300° (WNW) 03:34:40 435.225
CUBESAT XI-V 03 Dec 03:34:16 03:38:38 46° 73° (ENE) 03:43:01 437.345
MOZHAYETS 4 03 Dec 03:42:20 03:45:34 19° 266° (W) 03:48:47
AO-7 03 Dec 03:49:16 03:57:40 80° 289° (WNW) 04:06:01 29.400- 29.500
BRITE-PL 03 Dec 03:51:23 03:55:16 20° 93° (E) 03:59:15 437.365/2234.400
HORYU 2 03 Dec 04:08:33 04:11:26 17° 94° (E) 04:14:18 437.375
ITAMSAT 1 03 Dec 04:23:30 04:26:13 14° 297° (WNW) 04:28:54 435.822/435.867
SO-50 03 Dec 04:41:11 04:44:56 25° 51° (NE) 04:48:38 436.795
PHONESAT 2.4 03 Dec 04:52:53 04:55:28 44° 12° (NNE) 04:58:02 2401.200-2431.200
STARS 03 Dec 04:53:14 04:55:46 15° 267° (W) 04:58:19 437.465
BEESAT 3 03 Dec 05:01:37 05:05:25 55° 116° (ESE) 05:09:16 437.485
Cosmos 2504 03 Dec 05:07:05 05:10:42 13° 61° (ENE) 05:14:14 435.465 / 435.565
LilacSat-2 03 Dec 05:09:29 05:12:19 20° 95° (E) 05:15:08 437.200
NOAA 18 03 Dec 05:13:34 05:16:48 16° 93° (E) 05:20:00 137.9125
CUBESAT XI-V 03 Dec 05:13:41 05:16:14 15° 268° (W) 05:18:46 437.345
GOMX 1 03 Dec 05:21:40 05:27:05 64° 100° (E) 05:32:31 467.674
BEESAT 2 03 Dec 05:23:37 05:27:19 41° 115° (ESE) 05:31:04 435.950
BRITE-PL 03 Dec 05:28:41 05:33:51 50° 287° (WNW) 05:39:16 437.365/2234.400
CUTE-I 03 Dec 05:31:19 05:36:15 38° 98° (E) 05:41:10 437.470
YUBILEINY 03 Dec 05:40:29 05:48:59 49° 77° (ENE) 05:57:27 435.215
HORYU 2 03 Dec 05:43:59 05:48:05 37° 288° (WNW) 05:52:09 437.375
AO-7 03 Dec 05:44:23 05:49:07 17° 308° (NW) 05:53:51 29.400- 29.500
DOVE 4 03 Dec 05:49:23 05:54:33 50° 99° (E) 05:59:33 437.250
STRAND 1 03 Dec 05:50:15 05:55:09 46° 72° (ENE) 06:00:03 437.568
HO-68 03 Dec 05:54:36 05:56:59 12° 89° (E) 05:59:22 435.675
Cubesat XI-IV 03 Dec 05:55:54 06:01:14 66° 102° (ESE) 06:06:30 437.490
CINEMA 3 03 Dec 05:57:10 05:59:18 13° 90° (E) 06:01:24 145.822/145.860
Cosmos 2491 03 Dec 06:04:10 06:12:04 39° 87° (E) 06:19:57 435.465 / 435.565
NOAA 15 03 Dec 06:04:48 06:10:06 90° 277° (W) 06:15:24 137.62
SO-50 03 Dec 06:21:25 06:25:23 31° 247° (WSW) 06:29:17 436.795
AIST 1 03 Dec 06:25:38 06:29:38 33° 78° (ENE) 06:33:37
PHONESAT 2.4 03 Dec 06:28:14 06:30:42 35° 208° (SSW) 06:33:11 2401.200-2431.200
RS-15 03 Dec 06:41:31 06:52:27 50° 109° (ESE) 07:03:54 29.354- 29.394
BEESAT 3 03 Dec 06:41:32 06:43:23 13° 313° (NW) 06:45:13 437.485
LilacSat-2 03 Dec 06:43:33 06:46:31 22° 289° (WNW) 06:49:28 437.200
NOAA 18 03 Dec 06:52:22 06:57:49 60° 288° (WNW) 07:03:14 137.9125
Cosmos 2504 03 Dec 06:56:55 07:05:46 73° 82° (E) 07:14:05 435.465 / 435.565
CUTE 1.7 + AOD 2 03 Dec 06:59:25 07:03:17 35° 98° (E) 07:07:08 437.475
GOMX 1 03 Dec 07:01:18 07:04:35 16° 295° (WNW) 07:07:53 467.674
BEESAT 2 03 Dec 07:02:47 07:05:18 16° 311° (NW) 07:07:49 435.950
CUTE-I 03 Dec 07:11:50 07:16:03 24° 294° (WNW) 07:20:15 437.470
CANX-2 03 Dec 07:16:28 07:20:40 69° 101° (E) 07:24:52 2200.000
AIST 2 03 Dec 07:23:01 07:25:54 19° 110° (ESE) 07:28:48 435.215
UWE-3 03 Dec 07:26:02 07:28:49 17° 93° (E) 07:31:33 435.000/436.395/437.385
DOVE 4 03 Dec 07:28:07 07:31:45 19° 294° (WNW) 07:35:21 437.250
STRAND 1 03 Dec 07:31:02 07:34:30 18° 266° (W) 07:38:00 437.568
CINEMA 3 03 Dec 07:32:03 07:36:49 56° 286° (WNW) 07:41:21 145.822/145.860
Cubesat XI-IV 03 Dec 07:37:49 07:40:42 15° 297° (WNW) 07:43:33 437.490
YUBILEINY 03 Dec 07:37:52 07:45:23 33° 275° (W) 07:52:54 435.215
HO-68 03 Dec 07:38:21 07:45:35 83° 106° (ESE) 07:52:48 435.675
AAUSAT CUBESAT 2 03 Dec 07:38:50 07:42:35 33° 97° (E) 07:46:21 437.432
NOAA 15 03 Dec 07:48:11 07:49:04 10° 300° (WNW) 07:49:57 137.62
SEEDS 03 Dec 07:48:45 07:52:57 86° 283° (WNW) 07:57:08 437.485
PRISM 03 Dec 07:54:03 07:58:02 58° 75° (ENE) 08:02:03 437.425
TIGRISAT 03 Dec 08:00:24 08:02:52 14° 65° (ENE) 08:05:20 435.000
Cosmos 2491 03 Dec 08:00:36 08:08:45 41° 285° (WNW) 08:16:55 435.465 / 435.565
ANTELSAT 03 Dec 08:00:45 08:03:27 15° 66° (ENE) 08:06:08 437.575/2403.000
AIST 1 03 Dec 08:04:02 08:06:54 17° 273° (W) 08:09:47
COMPASS 1 03 Dec 08:05:25 08:09:35 83° 286° (WNW) 08:13:45 437.405
CUBEBUG 2 03 Dec 08:11:47 08:16:14 83° 284° (WNW) 08:20:31 437.445
ZACube-1 03 Dec 08:13:35 08:17:30 35° 97° (E) 08:21:19 437.345
FUNcube-1 03 Dec 08:23:05 08:27:07 42° 98° (E) 08:31:03 145.935
CUTE 1.7 + AOD 2 03 Dec 08:36:07 08:38:49 17° 292° (WNW) 08:41:31 437.475
Cosmos 2504 03 Dec 08:52:04 08:58:07 21° 280° (W) 09:03:58 435.465 / 435.565
RS-15 03 Dec 08:53:38 09:04:55 49° 311° (NW) 09:16:47 29.354- 29.394
Oscar 11 03 Dec 08:57:43 09:02:01 75° 284° (WNW) 09:06:17 145.826/435.025
AIST 2 03 Dec 09:00:22 09:04:06 33° 305° (NW) 09:07:53 435.215
UWE-3 03 Dec 09:01:27 09:05:23 34° 288° (WNW) 09:09:13 435.000/436.395/437.385
UNISAT 6 03 Dec 09:03:19 09:08:00 73° 76° (ENE) 09:12:41 437.425
DELFI C3 03 Dec 09:05:20 09:09:07 43° 99° (E) 09:12:55 145.870
AAUSAT CUBESAT 2 03 Dec 09:15:06 09:17:47 17° 292° (WNW) 09:20:28 437.432
POPSAT HIP 1 03 Dec 09:27:27 09:29:21 13° 65° (ENE) 09:31:15 437.405
HO-68 03 Dec 09:27:56 09:32:24 18° 302° (WNW) 09:36:53 435.675
JAS-2 03 Dec 09:34:20 09:40:17 35° 70° (ENE) 09:45:39 435.910
TIGRISAT 03 Dec 09:34:27 09:39:03 54° 260° (W) 09:43:40 435.000
CUSAT 1 03 Dec 09:35:08 09:38:47 56° 279° (W) 09:41:43 437.405
ANTELSAT 03 Dec 09:35:08 09:39:41 50° 261° (W) 09:44:15 437.575/2403.000
DANDE 03 Dec 09:48:22 09:53:33 46° 98° (E) 09:57:29 436.750
ZACube-1 03 Dec 09:50:46 09:53:28 17° 293° (WNW) 09:56:07 437.345
FUNcube-1 03 Dec 10:00:43 10:02:57 14° 294° (WNW) 10:05:09 145.935
Cosmos 2499 03 Dec 10:07:51 10:13:13 18° 64° (ENE) 10:18:20 435.465 / 435.565
HUMSAT D 03 Dec 10:09:15 10:13:15 59° 285° (WNW) 10:17:15 437.325/437.525
PCSat 03 Dec 10:13:11 10:15:48 14° 103° (ESE) 10:18:25 145.827
GONETS M04 03 Dec 10:18:39 10:24:36 20° 67° (ENE) 10:30:30
BUGSAT 1 03 Dec 10:21:31 10:24:15 17° 67° (ENE) 10:27:00 437.445
NANOSAT C BR1 03 Dec 10:21:49 10:25:56 51° 74° (ENE) 10:30:06 145.865
QB50P2 03 Dec 10:24:28 10:28:42 65° 75° (ENE) 10:32:58 145.880/145.840
AO-85 03 Dec 10:25:05 10:27:47 17° 49° (NE) 10:30:26 145.980
POLYITAN 1 03 Dec 10:25:06 10:29:20 62° 75° (ENE) 10:33:35 437.675
ESTCUBE 1 03 Dec 10:32:26 10:36:22 29° 97° (E) 10:40:17 437.505/2401.250
QB50P1 03 Dec 10:39:08 10:43:24 90° 100° (E) 10:47:43 145.935-145.965
DELFI C3 03 Dec 10:41:50 10:43:32 12° 293° (WNW) 10:45:13 145.870
DUCHIFAT 1 03 Dec 10:45:31 10:49:46 89° 233° (SW) 10:54:03 145.980
SPROUT 03 Dec 10:51:44 10:52:49 11° 91° (E) 10:53:54 437.525
AISAT 03 Dec 10:52:38 10:55:57 20° 95° (E) 10:59:15 437.250
POPSAT HIP 1 03 Dec 11:00:29 11:04:39 50° 261° (W) 11:08:51 437.405
